Terminal Aerodrome Forecast
Issued by NWS Albuquerque, NM

Home | Current Version | Previous Version | Text Only | Print | Product List | Glossary On
Versions: 1 2 3 4 5 6 7 8 9 10 11 12 13 14 15
000
FTUS45 KABQ 222300
TAFABQ
TAF
KABQ 222337Z 2300/2324 10012G22KT P6SM FEW080 SCT150
     FM230300 09011KT P6SM SCT090 SCT150
     FM230600 06006KT P6SM SCT090 SCT200
     FM231900 15011KT P6SM BKN100=

USA.gov is the U.S. government's official web portal to all federal, state and local government web resources and services.